FW6082 Weather Reports


time (UTC)temp
C
wind
direction
speed
KPH
gust
KPH
rain 1hr
cm
rain 24hr
cm
rain mn
cm
humidity
%
barometer
mb
20260505153044 22 129 1.6 8.0 0.00 0.00 0.00 23 1012.1
20260505151543 21 121 1.6 4.8 0.00 0.00 0.00 25 1012.3
20260505124602 13 175 4.8 14.5 0.00 0.00 0.00 39 1013.5
20260505123102 11 180 0.0 12.9 0.00 0.00 0.00 42 1013.3
20260505121623 8 14 0.0 0.0 0.00 0.00 0.00 42 1012.9
20260505120052 10 14 0.0 1.6 0.00 0.00 0.00 42 1012.7
20260505114552 10 153 0.0 0.0 0.00 0.00 0.00 37 1012.5
20260505113055 11 134 0.0 3.2 0.00 0.00 0.00 35 1012.3
20260505111550 11 175 0.0 4.8 0.00 0.00 0.00 34 1012.4
20260505101544 7 348 0.0 1.6 0.00 0.00 0.00 36 1011.9
20260505100058 8 348 0.0 1.6 0.00 0.00 0.00 39 1011.7
20260505094543 8 348 0.0 1.6 0.00 0.00 0.00 37 1011.6
20260505093038 7 359 0.0 0.0 0.00 0.00 0.00 39 1011.5
20260505091549 7 342 0.0 3.2 0.00 0.00 0.00 39 1011.7
20260505090048 8 293 0.0 0.0 0.00 0.00 0.00 40 1011.8
20260505084535 8 293 0.0 0.0 0.00 0.00 0.00 36 1011.8
20260505083046 9 293 0.0 0.0 0.00 0.00 0.00 38 1011.8
20260505081539 8 293 0.0 3.2 0.00 0.00 0.00 39 1011.9
20260505080044 8 293 0.0 1.6 0.00 0.00 0.00 41 1012.2
20260505074529 8 293 0.0 0.0 0.00 0.00 0.00 42 1012.2
20260505073030 8 293 0.0 0.0 0.00 0.00 0.00 42 1012.3
20260505071537 8 293 0.0 0.0 0.00 0.00 0.00 40 1012.4
20260505070028 9 293 0.0 1.6 0.00 0.00 0.00 43 1012.6
20260505064524 8 293 0.0 3.2 0.00 0.00 0.00 43 1012.9
20260505063030 9 293 0.0 3.2 0.00 0.00 0.00 40 1013.0
20260505061524 9 293 0.0 4.8 0.00 0.00 0.00 42 1013.1
20260505060022 9 293 0.0 3.2 0.00 0.00 0.00 42 1013.1
20260505054518 9 293 0.0 3.2 0.00 0.00 0.00 42 1013.1
20260505053014 8 293 0.0 0.0 0.00 0.00 0.00 46 1013.2
20260505051517 8 293 0.0 0.0 0.00 0.00 0.00 46 1013.3
20260505041505 8 293 0.0 0.0 0.00 0.00 0.00 51 1013.8
20260505040002 8 293 0.0 0.0 0.00 0.00 0.00 52 1013.8
20260505034601 9 293 0.0 0.0 0.00 0.00 0.00 50 1013.9
20260505033100 10 293 0.0 0.0 0.00 0.00 0.00 47 1013.8
20260505031605 10 293 0.0 1.6 0.00 0.00 0.00 48 1013.7
20260505030107 9 293 0.0 3.2 0.00 0.00 0.00 49 1013.7
20260505024617 10 293 0.0 0.0 0.00 0.00 0.00 50 1013.7
20260505023111 10 293 0.0 0.0 0.00 0.00 0.00 49 1013.7
20260505021559 10 293 0.0 0.0 0.00 0.00 0.00 49 1013.6
20260505020104 10 293 0.0 0.0 0.00 0.00 0.00 48 1013.5
20260505014555 10 293 0.0 0.0 0.00 0.00 0.00 48 1013.6
20260505013054 11 293 0.0 0.0 0.00 0.00 0.00 46 1013.4
20260505011556 11 293 0.0 0.0 0.00 0.00 0.00 46 1013.2
20260505010110 12 293 0.0 0.0 0.00 0.00 0.00 45 1013.0
20260505004553 13 293 0.0 0.0 0.00 0.00 0.00 43 1012.7
20260505003053 14 215 0.0 0.0 0.00 0.00 0.00 40 1012.5
20260505001552 15 215 0.0 0.0 0.00 0.00 0.00 36 1012.4
20260505000059 17 215 0.0 0.0 0.00 0.00 0.00 30 1012.1
20260504234552 18 186 0.0 1.6 0.00 0.00 0.00 30 1012.0
20260504233054 18 246 0.0 6.4 0.00 0.00 0.00 30 1011.8
20260504231552 18 265 0.0 0.0 0.00 0.00 0.00 28 1011.7
20260504230109 20 244 0.0 1.6 0.00 0.00 0.00 28 1011.5
20260504224600 21 285 0.0 0.0 0.00 0.00 0.00 25 1011.2
20260504223048 22 29 0.0 14.5 0.00 0.00 0.00 24 1010.9
20260504221547 22 217 0.0 6.4 0.00 0.00 0.00 23 1010.5
20260504220055 23 353 1.6 11.3 0.00 0.00 0.00 22 1010.1
20260504214548 23 68 0.0 9.7 0.00 0.00 0.00 20 1009.9
20260504213045 24 302 3.2 12.9 0.00 0.00 0.00 18 1009.6
20260504211545 25 195 3.2 19.3 0.00 0.00 0.00 17 1009.4
20260504210056 25 186 9.7 25.7 0.00 0.00 0.00 15 1009.1
20260504204548 26 162 11.3 22.5 0.00 0.00 0.00 14 1009.0
20260504203045 27 87 8.0 20.9 0.00 0.00 0.00 14 1008.9
20260504201547 28 128 3.2 14.5 0.00 0.00 0.00 13 1008.7
20260504200052 28 155 6.4 17.7 0.00 0.00 0.00 12 1008.7
20260504194540 28 145 1.6 17.7 0.00 0.00 0.00 13 1008.8
20260504193043 28 101 3.2 24.1 0.00 0.00 0.00 13 1008.8
20260504191539 28 128 8.0 19.3 0.00 0.00 0.00 13 1009.1
20260504190036 28 136 6.4 17.7 0.00 0.00 0.00 12 1009.1
20260504184538 28 105 4.8 12.9 0.00 0.00 0.00 12 1009.3
20260504183036 27 129 6.4 19.3 0.00 0.00 0.00 12 1009.4
20260504181528 27 175 8.0 24.1 0.00 0.00 0.00 12 1009.7
20260504180027 27 122 6.4 19.3 0.00 0.00 0.00 12 1009.8
20260504174522 27 120 4.8 14.5 0.00 0.00 0.00 12 1010.2
20260504173020 27 88 8.0 24.1 0.00 0.00 0.00 11 1010.4
20260504171520 27 170 6.4 17.7 0.00 0.00 0.00 11 1010.8
20260504160106 25 146 1.6 19.3 0.00 0.00 0.00 11 1011.9